SAS248 EDDH-EKCH

Flight info

Callsign SAS248
Flight time 0h 34m
Altitude 23000
Route LUGEG3G/33 LUGEG P605 GESKA/N0387F220 Z711 MONAK
Aircraft A319/M-SDE3FGHIRWY/LB1

Departure

Time 2026-04-25 13:01
Airport Hamburg Helmut Schmidt Airport (EDDH)

Arrival

Time 2026-04-25 13:35
Airport Copenhagen Kastrup Airport (EKCH)
Time Latitude Longitude Altitude Speed Heading
2026-04-25 12:41 53.63169 10.00364 51 ft 0 kts 87°
2026-04-25 12:55 53.63168 10.00332 51 ft 4 kts 91°
2026-04-25 12:55 53.63169 10.00302 51 ft 4 kts 98°
2026-04-25 12:55 53.63182 10.00252 49 ft 3 kts 168°
2026-04-25 12:55 53.63186 10.00250 51 ft 0 kts 175°
2026-04-25 12:58 53.63185 10.00251 51 ft 1 kts 175°
2026-04-25 12:58 53.63167 10.00253 51 ft 4 kts 175°
2026-04-25 12:59 53.63128 10.00257 51 ft 7 kts 177°
2026-04-25 12:59 53.63073 10.00257 51 ft 9 kts 192°
2026-04-25 12:59 53.63009 10.00198 51 ft 12 kts 211°
2026-04-25 12:59 53.62930 10.00114 49 ft 15 kts 212°
2026-04-25 13:00 53.62837 9.99997 48 ft 18 kts 218°
2026-04-25 13:00 53.62773 9.99930 50 ft 13 kts 205°
2026-04-25 13:00 53.62791 9.99808 49 ft 8 kts 330°
2026-04-25 13:00 53.62857 9.99750 48 ft 13 kts 333°
2026-04-25 13:01 53.63026 9.99608 46 ft 54 kts 332°
2026-04-25 13:01 53.63534 9.99165 49 ft 110 kts 333°
2026-04-25 13:01 53.64375 9.98467 115 ft 152 kts 328°
2026-04-25 13:01 53.65315 9.97673 749 ft 155 kts 327°
2026-04-25 13:02 53.66283 9.96771 1493 ft 163 kts 325°
2026-04-25 13:02 53.67347 9.95819 1963 ft 184 kts 327°
2026-04-25 13:02 53.68569 9.94832 2622 ft 202 kts 337°
2026-04-25 13:02 53.69990 9.94629 3691 ft 207 kts 354°
2026-04-25 13:03 53.71420 9.94666 4746 ft 205 kts 352°
2026-04-25 13:03 53.72875 9.95117 5534 ft 232 kts 14°
2026-04-25 13:03 53.74263 9.96955 6034 ft 273 kts 38°
2026-04-25 13:03 53.75593 9.99367 6845 ft 285 kts 39°
2026-04-25 13:04 53.76924 10.01886 7752 ft 290 kts 40°
2026-04-25 13:04 53.78252 10.04425 8677 ft 294 kts 39°
2026-04-25 13:04 53.79622 10.07038 9616 ft 298 kts 39°
2026-04-25 13:04 53.81021 10.09681 10380 ft 308 kts 38°
2026-04-25 13:05 53.82516 10.12459 10686 ft 331 kts 39°
2026-04-25 13:05 53.84119 10.15426 11178 ft 346 kts 39°
2026-04-25 13:05 53.85748 10.18476 11905 ft 352 kts 39°
2026-04-25 13:05 53.87396 10.21588 12671 ft 357 kts 39°
2026-04-25 13:06 53.89064 10.24737 13415 ft 361 kts 40°
2026-04-25 13:06 53.90757 10.27931 14125 ft 366 kts 39°
2026-04-25 13:06 53.92475 10.31144 14808 ft 369 kts 39°
2026-04-25 13:06 53.94158 10.34486 15496 ft 376 kts 43°
2026-04-25 13:07 53.95780 10.37998 16187 ft 380 kts 44°
2026-04-25 13:07 53.97416 10.41536 16874 ft 382 kts 43°
2026-04-25 13:07 53.99086 10.44992 17557 ft 384 kts 42°
2026-04-25 13:07 54.00832 10.48433 18236 ft 386 kts 40°
2026-04-25 13:08 54.02631 10.51845 18837 ft 389 kts 40°
2026-04-25 13:08 54.04463 10.55253 19403 ft 392 kts 39°
2026-04-25 13:08 54.06315 10.58686 19996 ft 396 kts 39°
2026-04-25 13:08 54.08183 10.62168 20571 ft 400 kts 40°
2026-04-25 13:09 54.10063 10.65699 21144 ft 403 kts 40°
2026-04-25 13:09 54.11951 10.69269 21698 ft 407 kts 40°
2026-04-25 13:09 54.13851 10.72880 22246 ft 411 kts 40°
2026-04-25 13:09 54.15771 10.76534 22778 ft 415 kts 40°
2026-04-25 13:10 54.17707 10.80227 22961 ft 416 kts 40°
2026-04-25 13:10 54.19604 10.83876 22994 ft 406 kts 40°
2026-04-25 13:10 54.21470 10.87471 22990 ft 403 kts 40°
2026-04-25 13:10 54.23312 10.91003 22987 ft 403 kts 40°
2026-04-25 13:11 54.25184 10.94576 22986 ft 402 kts 39°
2026-04-25 13:11 54.27054 10.98147 22978 ft 403 kts 39°
2026-04-25 13:11 54.28921 11.01722 22983 ft 403 kts 39°
2026-04-25 13:11 54.30786 11.05308 22977 ft 403 kts 40°
2026-04-25 13:12 54.32656 11.08914 22977 ft 404 kts 39°
2026-04-25 13:12 54.34519 11.12511 22976 ft 404 kts 39°
2026-04-25 13:12 54.36385 11.16118 22972 ft 404 kts 39°
2026-04-25 13:12 54.37615 11.18501 22977 ft 404 kts 39°
2026-04-25 13:13 54.40106 11.23337 22971 ft 404 kts 39°
2026-04-25 13:13 54.41969 11.26953 22974 ft 404 kts 39°
2026-04-25 13:13 54.43811 11.30529 22970 ft 405 kts 39°
2026-04-25 13:13 54.45674 11.34152 22965 ft 405 kts 39°
2026-04-25 13:14 54.47537 11.37785 22963 ft 405 kts 39°
2026-04-25 13:14 54.49396 11.41418 22875 ft 404 kts 39°
2026-04-25 13:14 54.51245 11.45039 22604 ft 401 kts 39°
2026-04-25 13:14 54.53082 11.48646 22339 ft 399 kts 39°
2026-04-25 13:15 54.54910 11.52235 22071 ft 398 kts 39°
2026-04-25 13:15 54.56733 11.55815 21812 ft 396 kts 39°
2026-04-25 13:15 54.58549 11.59385 21544 ft 395 kts 39°
2026-04-25 13:15 54.60356 11.62941 21295 ft 393 kts 39°
2026-04-25 13:16 54.62157 11.66490 21043 ft 392 kts 39°
2026-04-25 13:16 54.63947 11.70033 20787 ft 391 kts 39°
2026-04-25 13:16 54.65728 11.73568 20532 ft 389 kts 39°
2026-04-25 13:16 54.67508 11.77099 20287 ft 388 kts 39°
2026-04-25 13:17 54.69275 11.80608 20042 ft 387 kts 39°
2026-04-25 13:17 54.71017 11.84069 19798 ft 385 kts 39°
2026-04-25 13:17 54.72774 11.87562 19558 ft 384 kts 39°
2026-04-25 13:17 54.74524 11.91046 19315 ft 383 kts 39°
2026-04-25 13:18 54.76266 11.94527 19041 ft 379 kts 39°
2026-04-25 13:18 54.77985 11.97971 18578 ft 377 kts 39°
2026-04-25 13:18 54.79701 12.01408 18078 ft 376 kts 39°
2026-04-25 13:18 54.81393 12.04797 17564 ft 374 kts 39°
2026-04-25 13:19 54.83086 12.08195 17088 ft 371 kts 39°
2026-04-25 13:19 54.84766 12.11572 16598 ft 368 kts 39°
2026-04-25 13:19 54.86432 12.14924 16122 ft 365 kts 39°
2026-04-25 13:19 54.86990 12.16050 15955 ft 365 kts 39°
2026-04-25 13:20 54.89171 12.20458 15328 ft 362 kts 39°
2026-04-25 13:20 54.91354 12.24875 14695 ft 359 kts 40°
2026-04-25 13:20 54.92981 12.28167 14216 ft 357 kts 40°
2026-04-25 13:20 54.94618 12.31375 13754 ft 352 kts 36°
2026-04-25 13:21 54.96338 12.34379 13241 ft 349 kts 35°
2026-04-25 13:21 54.98056 12.37338 12760 ft 346 kts 35°
2026-04-25 13:21 54.99755 12.40268 12345 ft 341 kts 35°
2026-04-25 13:21 55.01434 12.43165 11934 ft 338 kts 35°
2026-04-25 13:22 55.03099 12.46037 11522 ft 336 kts 35°
2026-04-25 13:22 55.04733 12.48856 11130 ft 334 kts 35°
2026-04-25 13:22 55.06379 12.51693 10728 ft 332 kts 35°
2026-04-25 13:23 55.09643 12.57314 9949 ft 326 kts 35°
2026-04-25 13:23 55.11253 12.60085 9538 ft 323 kts 35°
2026-04-25 13:23 55.12848 12.62827 9109 ft 321 kts 35°
2026-04-25 13:23 55.14433 12.65539 8702 ft 317 kts 35°
2026-04-25 13:24 55.16004 12.68220 8335 ft 313 kts 35°
2026-04-25 13:24 55.17553 12.70853 7976 ft 309 kts 35°
2026-04-25 13:24 55.19088 12.73458 7614 ft 305 kts 36°
2026-04-25 13:24 55.20602 12.76016 7296 ft 300 kts 35°
2026-04-25 13:25 55.22106 12.78546 6890 ft 299 kts 36°
2026-04-25 13:25 55.23607 12.81055 6498 ft 297 kts 36°
2026-04-25 13:25 55.25106 12.83537 6093 ft 295 kts 36°
2026-04-25 13:25 55.26601 12.85988 5664 ft 293 kts 35°
2026-04-25 13:26 55.28114 12.88271 5252 ft 287 kts 28°
2026-04-25 13:26 55.29757 12.90226 4835 ft 284 kts 25°
2026-04-25 13:26 55.31403 12.92126 4418 ft 283 kts 25°
2026-04-25 13:26 55.33041 12.94024 4049 ft 280 kts 25°
2026-04-25 13:27 55.34626 12.95877 3997 ft 267 kts 25°
2026-04-25 13:27 55.36149 12.97667 4002 ft 257 kts 25°
2026-04-25 13:27 55.37647 12.99065 4002 ft 229 kts
2026-04-25 13:27 55.39106 12.99037 3995 ft 198 kts 339°
2026-04-25 13:28 55.40383 12.98436 3995 ft 185 kts 336°
2026-04-25 13:28 55.40800 12.98221 3995 ft 184 kts 335°
2026-04-25 13:28 55.42831 12.97159 3997 ft 183 kts 335°
2026-04-25 13:28 55.44048 12.96522 3993 ft 183 kts 335°
2026-04-25 13:29 55.45269 12.95884 4009 ft 183 kts 335°
2026-04-25 13:29 55.46077 12.95461 4010 ft 183 kts 335°
2026-04-25 13:29 55.47716 12.94597 4011 ft 184 kts 335°
2026-04-25 13:30 55.50133 12.93313 4008 ft 176 kts 335°
2026-04-25 13:30 55.50888 12.92920 3997 ft 167 kts 335°
2026-04-25 13:30 55.52133 12.91496 3547 ft 162 kts 305°
2026-04-25 13:31 55.53183 12.88719 3073 ft 161 kts 301°
2026-04-25 13:31 55.53795 12.87086 2850 ft 158 kts 301°
2026-04-25 13:31 55.54397 12.85476 2617 ft 156 kts 301°
2026-04-25 13:31 55.55181 12.83378 2363 ft 150 kts 301°
2026-04-25 13:32 55.55559 12.82365 2207 ft 142 kts 301°
2026-04-25 13:32 55.56080 12.80970 1997 ft 131 kts 301°
2026-04-25 13:32 55.56573 12.79647 1824 ft 127 kts 301°
2026-04-25 13:32 55.57049 12.78369 1658 ft 125 kts 301°
2026-04-25 13:33 55.57526 12.77085 1486 ft 125 kts 301°
2026-04-25 13:33 55.58001 12.75809 1322 ft 124 kts 301°
2026-04-25 13:33 55.58477 12.74530 1139 ft 124 kts 302°
2026-04-25 13:33 55.58791 12.73685 1016 ft 124 kts 302°
2026-04-25 13:34 55.59424 12.71980 766 ft 124 kts 300°
2026-04-25 13:34 55.59899 12.70694 574 ft 125 kts 299°
2026-04-25 13:34 55.60375 12.69413 427 ft 125 kts 299°
2026-04-25 13:34 55.60848 12.68139 242 ft 123 kts 298°
2026-04-25 13:35 55.61316 12.66872 90 ft 122 kts 298°
2026-04-25 13:35 55.61742 12.65700 19 ft 105 kts 305°
2026-04-25 13:35 55.62096 12.64777 18 ft 59 kts 303°
2026-04-25 13:35 55.62274 12.64287 15 ft 45 kts 303°
2026-04-25 13:36 55.62402 12.63947 16 ft 23 kts 303°
2026-04-25 13:36 55.62473 12.63808 17 ft 17 kts 332°
2026-04-25 13:36 55.62584 12.63775 17 ft 10 kts
2026-04-25 13:36 55.62633 12.63800 17 ft 0 kts 23°
2026-04-25 13:37 55.62640 12.63806 17 ft 4 kts 26°
2026-04-25 13:37 55.62678 12.63848 19 ft 8 kts 33°
2026-04-25 13:37 55.62726 12.63918 17 ft 9 kts 70°
2026-04-25 13:37 55.62684 12.63995 17 ft 10 kts 140°
2026-04-25 13:38 55.62634 12.64103 18 ft 9 kts 124°
2026-04-25 13:38 55.62602 12.64191 17 ft 9 kts 114°
2026-04-25 13:38 55.62634 12.64295 17 ft 12 kts 32°
2026-04-25 13:38 55.62709 12.64350 17 ft 8 kts 24°
2026-04-25 13:39 55.62744 12.64379 18 ft 5 kts 26°
2026-04-25 13:39 55.62754 12.64449 17 ft 6 kts 97°
2026-04-25 13:39 55.62752 12.64474 17 ft 1 kts 100°
2026-04-25 13:39 55.62751 12.64480 17 ft 0 kts 101°